Location: *
(46.1006°N, 1.8394°E)
Time: 15:09:49
(UTC+00:00)

ARGOS - Pass Details

Date: 20 September 2019
Orbit: 821 x 834 km, 98.5° (Epoch: 16 October)

Event Time Altitude Azimuth Distance (km) Brightness Sun altitude
Exits shadow 20:16:39 27° 190° (S) 1,552 4.4 -24.3°
Maximum altitude 20:19:32 58° 259° (W) 962 3.6 -24.7°
Drops below altitude 10° 20:24:52 10° 339° (NNW) 2,440 6.3 -25.5°
Sets 20:27:16 0° 343° (NNW) 3,380 7.0 -25.9°
